• En España
  • Lista de países
  • Para 7 días
  • Temperatura del agua
  • Mapa Satelital
  • El tiempo en el mapa
  • Informadores
  • user-avatar
    Iniciar sesión

    Tiempo cada hora Stronno

    Hoy, 20 Julio, Viernes

    Tiempo Temperatura Precipitaciones Viento Presión Humedad
    00:00 +18°C° 0 mm 3 mps 751 mmHg 90%
    01:00 +18°C° 0 mm 3 mps 751 mmHg 90%
    02:00 +17°C° 0 mm 3 mps 751 mmHg 90%
    03:00 +17°C° 0 mm 3 mps 751 mmHg 91%
    04:00 +17°C° 0 mm 3 mps 751 mmHg 91%
    05:00 +18°C° 0 mm 3 mps 751 mmHg 86%
    06:00 +19°C° 0 mm 4 mps 751 mmHg 82%
    07:00 +20°C° 0 mm 3 mps 751 mmHg 78%
    08:00 +22°C° 0 mm 4 mps 751 mmHg 72%
    09:00 +23°C° 0 mm 4 mps 751 mmHg 67%
    10:00 +26°C° 0 mm 4 mps 751 mmHg 62%
    11:00 +26°C° 0 mm 4 mps 751 mmHg 59%
    12:00 +27°C° 0 mm 4 mps 751 mmHg 56%
    13:00 +28°C° 0 mm 4 mps 751 mmHg 54%
    14:00 +27°C° 0,1 mm 4 mps 751 mmHg 55%
    15:00 +27°C° 0,1 mm 4 mps 750 mmHg 57%
    16:00 +27°C° 0,1 mm 4 mps 750 mmHg 58%
    17:00 +26°C° 0,1 mm 4 mps 750 mmHg 64%
    18:00 +24°C° 0,1 mm 3 mps 750 mmHg 69%
    19:00 +22°C° 0,1 mm 3 mps 750 mmHg 75%
    20:00 +20°C° 0 mm 3 mps 750 mmHg 78%
    21:00 +19°C° 0 mm 3 mps 751 mmHg 81%
    22:00 +17°C° 0 mm 2 mps 751 mmHg 83%
    23:00 +17°C° 0 mm 2 mps 751 mmHg 83%

    Mañana, 21 Julio, Sábado

    Tiempo Temperatura Precipitaciones Viento Presión Humedad
    00:00 +16°C° 0 mm 2 mps 751 mmHg 83%
    01:00 +15°C° 0 mm 2 mps 751 mmHg 82%
    02:00 +15°C° 0 mm 2 mps 750 mmHg 82%
    03:00 +14°C° 0 mm 2 mps 750 mmHg 83%
    04:00 +14°C° 0 mm 2 mps 750 mmHg 83%
    05:00 +15°C° 0 mm 2 mps 750 mmHg 79%
    06:00 +17°C° 0 mm 2 mps 751 mmHg 76%
    07:00 +18°C° 0 mm 2 mps 751 mmHg 73%
    08:00 +20°C° 0 mm 3 mps 751 mmHg 67%
    09:00 +22°C° 0 mm 3 mps 751 mmHg 61%
    10:00 +24°C° 0 mm 3 mps 751 mmHg 54%
    11:00 +25°C° 0 mm 3 mps 751 mmHg 51%
    12:00 +26°C° 0 mm 2 mps 751 mmHg 48%
    13:00 +27°C° 0 mm 2 mps 751 mmHg 45%
    14:00 +27°C° 0 mm 2 mps 751 mmHg 46%
    15:00 +27°C° 0 mm 2 mps 751 mmHg 46%
    16:00 +27°C° 0 mm 2 mps 750 mmHg 47%
    17:00 +26°C° 0 mm 2 mps 750 mmHg 53%
    18:00 +25°C° 0 mm 2 mps 750 mmHg 60%
    19:00 +23°C° 0 mm 2 mps 750 mmHg 67%
    20:00 +21°C° 0 mm 2 mps 750 mmHg 72%
    21:00 +20°C° 0 mm 2 mps 751 mmHg 77%
    22:00 +18°C° 0 mm 3 mps 751 mmHg 81%
    23:00 +18°C° 0 mm 2 mps 751 mmHg 83%

    Pasado mañana, 22 Julio, Domingo

    Tiempo Temperatura Precipitaciones Viento Presión Humedad
    00:00 +17°C° 0 mm 2 mps 751 mmHg 85%
    01:00 +17°C° 0 mm 2 mps 751 mmHg 87%
    02:00 +17°C° 0 mm 2 mps 751 mmHg 87%
    03:00 +16°C° 0 mm 1 mps 751 mmHg 88%
    04:00 +16°C° 0 mm 1 mps 750 mmHg 88%
    05:00 +18°C° 0 mm 1 mps 751 mmHg 83%
    06:00 +20°C° 0 mm 1 mps 751 mmHg 78%
    07:00 +21°C° 0 mm 1 mps 751 mmHg 73%
    08:00 +23°C° 0 mm 1 mps 751 mmHg 68%
    09:00 +24°C° 0 mm 2 mps 751 mmHg 62%
    10:00 +25°C° 0 mm 2 mps 751 mmHg 57%
    11:00 +26°C° 0 mm 2 mps 751 mmHg 54%
    12:00 +27°C° 0 mm 2 mps 751 mmHg 52%
    13:00 +28°C° 0 mm 2 mps 751 mmHg 49%
    14:00 +28°C° 0 mm 2 mps 750 mmHg 50%
    15:00 +27°C° 0 mm 2 mps 750 mmHg 52%
    16:00 +27°C° 0 mm 2 mps 750 mmHg 53%
    17:00 +26°C° 0,1 mm 2 mps 750 mmHg 58%
    18:00 +25°C° 0,1 mm 2 mps 750 mmHg 64%
    19:00 +24°C° 0,1 mm 2 mps 750 mmHg 69%
    20:00 +21°C° 0 mm 2 mps 750 mmHg 73%
    21:00 +20°C° 0 mm 2 mps 751 mmHg 77%
    22:00 +18°C° 0 mm 2 mps 751 mmHg 81%
    23:00 +18°C° 0 mm 2 mps 751 mmHg 81%

    23 Julio, Lunes

    Tiempo Temperatura Precipitaciones Viento Presión Humedad
    00:00 +17°C° 0 mm 2 mps 751 mmHg 81%
    01:00 +17°C° 0 mm 2 mps 750 mmHg 81%
    02:00 +16°C° 0 mm 2 mps 750 mmHg 81%
    03:00 +16°C° 0 mm 1 mps 750 mmHg 81%
    04:00 +16°C° 0 mm 1 mps 750 mmHg 82%
    05:00 +18°C° 0 mm 1 mps 751 mmHg 76%
    06:00 +20°C° 0 mm 1 mps 751 mmHg 71%
    07:00 +21°C° 0 mm 1 mps 751 mmHg 66%
    08:00 +23°C° 0 mm 1 mps 751 mmHg 60%
    09:00 +25°C° 0 mm 1 mps 751 mmHg 53%
    10:00 +26°C° 0 mm 1 mps 751 mmHg 47%
    11:00 +27°C° 0 mm 1 mps 751 mmHg 46%
    12:00 +28°C° 0 mm 1 mps 751 mmHg 45%
    13:00 +28°C° 0 mm 2 mps 751 mmHg 44%
    14:00 +28°C° 0,1 mm 2 mps 751 mmHg 47%
    15:00 +27°C° 0,1 mm 2 mps 751 mmHg 50%
    16:00 +27°C° 0,1 mm 2 mps 751 mmHg 53%
    17:00 +26°C° 0,3 mm 2 mps 751 mmHg 60%
    18:00 +25°C° 0,3 mm 2 mps 751 mmHg 67%
    19:00 +24°C° 0,3 mm 2 mps 751 mmHg 73%
    20:00 +21°C° 0 mm 2 mps 751 mmHg 77%
    21:00 +21°C° 0 mm 1 mps 751 mmHg 81%
    22:00 +20°C° 0 mm 1 mps 751 mmHg 85%
    23:00 +19°C° 0 mm 1 mps 751 mmHg 87%

    24 Julio, Martes

    Tiempo Temperatura Precipitaciones Viento Presión Humedad
    00:00 +18°C° 0 mm 2 mps 751 mmHg 88%
    01:00 +17°C° 0 mm 2 mps 751 mmHg 90%
    02:00 +17°C° 0 mm 2 mps 751 mmHg 91%
    03:00 +16°C° 0 mm 2 mps 751 mmHg 92%
    04:00 +16°C° 0 mm 2 mps 751 mmHg 93%
    05:00 +17°C° 0 mm 2 mps 751 mmHg 88%
    06:00 +18°C° 0 mm 2 mps 751 mmHg 82%
    07:00 +21°C° 0 mm 1 mps 751 mmHg 77%
    08:00 +21°C° 0 mm 2 mps 751 mmHg 71%
    09:00 +23°C° 0 mm 2 mps 751 mmHg 64%
    10:00 +25°C° 0 mm 2 mps 751 mmHg 58%
    11:00 +26°C° 0 mm 2 mps 751 mmHg 55%
    12:00 +26°C° 0 mm 2 mps 751 mmHg 52%
    13:00 +27°C° 0 mm 3 mps 750 mmHg 49%
    14:00 +27°C° 0 mm 3 mps 750 mmHg 50%
    15:00 +27°C° 0 mm 3 mps 750 mmHg 51%
    16:00 +27°C° 0 mm 3 mps 750 mmHg 52%
    17:00 +26°C° 0 mm 3 mps 750 mmHg 58%
    18:00 +24°C° 0 mm 3 mps 750 mmHg 64%
    19:00 +22°C° 0 mm 3 mps 750 mmHg 70%
    20:00 +21°C° 0 mm 2 mps 750 mmHg 74%
    21:00 +20°C° 0 mm 2 mps 750 mmHg 77%
    22:00 +19°C° 0 mm 2 mps 751 mmHg 81%
    23:00 +18°C° 0 mm 2 mps 750 mmHg 83%

    25 Julio, Miércoles

    Tiempo Temperatura Precipitaciones Viento Presión Humedad
    00:00 +18°C° 0 mm 2 mps 750 mmHg 85%
    01:00 +18°C° 0 mm 1 mps 750 mmHg 87%
    02:00 +18°C° 0 mm 1 mps 750 mmHg 88%
    03:00 +18°C° 0 mm 1 mps 750 mmHg 89%
    04:00 +18°C° 0 mm 1 mps 751 mmHg 90%
    05:00 +19°C° 0 mm 1 mps 751 mmHg 86%
    06:00 +19°C° 0 mm 2 mps 751 mmHg 81%
    07:00 +20°C° 0 mm 2 mps 751 mmHg 76%
    08:00 +21°C° 0 mm 2 mps 751 mmHg 71%
    09:00 +24°C° 0 mm 2 mps 751 mmHg 66%
    10:00 +25°C° 0 mm 2 mps 751 mmHg 60%
    11:00 +25°C° 0 mm 2 mps 751 mmHg 59%
    12:00 +26°C° 0 mm 2 mps 750 mmHg 57%
    13:00 +27°C° 0 mm 2 mps 750 mmHg 56%
    14:00 +27°C° 0,1 mm 2 mps 750 mmHg 57%
    15:00 +27°C° 0,1 mm 2 mps 750 mmHg 58%
    16:00 +27°C° 0,1 mm 2 mps 750 mmHg 59%
    17:00 +26°C° 0,1 mm 2 mps 750 mmHg 65%
    18:00 +25°C° 0,1 mm 2 mps 750 mmHg 71%
    19:00 +24°C° 0,1 mm 2 mps 750 mmHg 76%
    20:00 +23°C° 0 mm 1 mps 750 mmHg 81%
    21:00 +22°C° 0 mm 1 mps 750 mmHg 86%
    22:00 +21°C° 0 mm 1 mps 750 mmHg 91%
    23:00 +20°C° 0 mm 1 mps 750 mmHg 92%
    Mostrar más